Miscellaneous Local Product
Issued by NWS North Platte, NE

Home | Current Version | Previous Version | Text Only | Print | Product List | Glossary On
Versions: 1 2 3 4 5 6 7 8 9 10 11 12 13 14 15 16 17 18 19 20 21 22 23 24 25 26 27 28 29 30 31 32 33 34 35 36 37 38 39 40 41 42 43 44 45 46 47 48 49 50
606
AXUS43 KLBF 170010
MISLBF


WESTERN AND NORTH CENTRAL NEBRASKA HOURLY WEATHER ROUNDUP
NATIONAL WEATHER SERVICE NORTH PLATTE NE
600 PM CST MON JAN 16 2017

NOTE: "FAIR" INDICATES FEW OR NO CLOUDS BELOW 12,000 FEET WITH NO
SIGNIFICANT WEATHER AND/OR OBSTRUCTIONS TO VISIBILITY.

NOTE: STATIONS NOT REPORTING VARIABLES SUCH AS SKY/WEATHER OR
PRESSURE ARE PROVIDED BY RAWS AND APRS NETWORKS AND ARE NOT UNDER
NATIONAL WEATHER SERVICE QUALITY CONTROL.

...OBSERVATIONS IN AND NEAR THE EASTERN PANHANDLE OF NEBRASKA...

CITY           SKY/WX    TMP DP  RH WIND       PRES   REMARKS
PINE RIDGE     CLOUDY    21  16  81 SW3       30.09R
CHADRON        CLEAR     27  18  69 S6        30.10R WCI  20
ALLIANCE       CLOUDY    30  16  56 NW6       30.06R WCI  24
SIDNEY         CLOUDY    35  24  64 N10       30.06R WCI  27
$$

...OBSERVATIONS IN NORTHERN NEBRASKA AND FAR SOUTHERN SOUTH DAKOTA...

CITY           SKY/WX    TMP DP  RH WIND       PRES   REMARKS
WINNER         FAIR      23  15  71 NW13      30.07R WCI  11
VALENTINE      CLOUDY    27  15  61 NW8       30.06R WCI  19
THEDFORD       CLOUDY    34  22  62 NW8       30.03R WCI  27
AINSWORTH      CLOUDY    28  19  70 NW10      30.03R WCI  18
O`NEILL        CLOUDY    31  26  83 NW10      30.00S WCI  22
ORD            CLOUDY    33  28  81 N14       29.98R WCI  23
BROKEN BOW     CLOUDY    34  29  82 N17       29.98R WCI  23
VALENTINE NWR    N/A     33  17  53 NW9G18      N/A  WCI  25
BUTTE            N/A     27  16  63 W14         N/A  WCI  16
HALSEY           N/A     34  20  57 NW8G15      N/A  WCI  27
SARGENT          N/A     33  28  81 NW3         N/A
CHAMBERS         N/A     30  26  84 S5          N/A  WCI  25
EWING            N/A     30  27  90 N8          N/A  WCI  22
$$

...OBSERVATIONS IN SOUTHWEST NEBRASKA AND FAR NORTHEAST COLORADO...

CITY           SKY/WX    TMP DP  RH WIND       PRES   REMARKS
WRAY           CLOUDY    36  27  69 NW15      30.05R WCI  26
HOLYOKE        CLOUDY    37  28  70 NW14      30.05R WCI  29
IMPERIAL       CLOUDY    34  28  79 NW13      30.04R WCI  25
OGALLALA       CLOUDY    36  28  73 N12       30.04R WCI  28
NORTH PLATTE   CLOUDY    35  28  75 NW8       30.02R WCI  29
MCCOOK         CLOUDY    35  32  88 NW8       30.02R WCI  29
LEXINGTON      CLOUDY    34  30  85 NW9       29.99R WCI  27
STAPLETON        N/A     33  26  77 CALM        N/A
GOTHENBURG       N/A     35  32  89 NW7         N/A  WCI  29
CALLAWAY         N/A     33  30  90 CALM        N/A
$$

...OBSERVATIONS IN CENTRAL LINCOLN COUNTY AREA...

CITY           SKY/WX    TMP DP  RH WIND       PRES   REMARKS
N.P. AIRPORT   CLOUDY    35  28  75 NW8       30.02R WCI  29
N.P. DOWNTOWN    N/A     35  29  80 NW3         N/A
N.P. SOUTHEAST   N/A     35  28  76 N3          N/A
N.P. HILLCREST   N/A     35  29  80 NW9         N/A  WCI  28
$$

...SOME OBSERVATIONS FROM AROUND THE REGION...

CITY           SKY/WX    TMP DP  RH WIND       PRES   REMARKS
LARAMIE        CLOUDY    21  12  68 CALM      30.08R
CHEYENNE       CLOUDY    34  11  38 N6        30.07R WCI  29
DENVER         CLOUDY    34  26  72 W6        30.09R WCI  29
AKRON          CLOUDY    33  23  66 NW9       30.07R WCI  25
SCOTTSBLUFF    CLOUDY    34  19  54 NW7       30.09R WCI  28
RAPID CITY     CLEAR     28  17  63 N17       30.08R WCI  16
BISMARCK       CLOUDY    18  11  74 W7        30.10R WCI   9
PIERRE         CLEAR     18  12  77 NW9       30.07R WCI   7
SIOUX FALLS    FRZ RAIN  31  29  92 N8        29.99R FOG     WCI  23
OMAHA          DRIZZLE   34  30  85 N10       29.92R FOG     WCI  26
GRAND ISLAND   CLOUDY   N/A N/A N/A N9        29.96R HAZE
KANSAS CITY    LGT RAIN  43  42  97 SW14      29.86R FOG
WICHITA        CLOUDY    37  34  89 W10       29.96R WCI  30
OKLAHOMA CITY  MOCLDY    45  34  65 W9        30.02R
DALLAS         MOCLDY    59  46  62 NW7       30.00R
AMARILLO       CLOUDY    39  33  79 N14       30.05R WCI  31
DODGE CITY     CLOUDY    33  32  96 NW12      30.01R WCI  24
HAYS           CLOUDY    33  32  96 N13       29.97R WCI  24
GOODLAND       CLOUDY    33  30  88 NW14      30.02R WCI  23
$$




USA.gov is the U.S. government's official web portal to all federal, state and local government web resources and services.